Content
SEND FEEDBACK

Daily
Averages
Monthly
Summary
Paraguay

PUERTO PRESIDENTE STROESSNER, PARAGUAY


Home > South America > Paraguay
Elevation: 643 feet     Latitude: 25 31S     Longitude: 054 36W

WEATHER
 
SELECT A DAY
Number of Records: 186,541;   Date Range: 6/30/96 - 9/30/14
 
SHARE

PRINT THIS DATA

[ ← Previous Day ]
WEATHER ALMANAC - JANUARY 31, 2013
[ Next Day → ]
[ °C ]   °F
Weather ElementAverageHighLow
Temperature82.5 °F95 °F (4:00 pm)71.6 °F (1:00 am)
Dewpoint66.7 °F69.8 °F (2:00 pm)62.6 °F (5:00 am)
Humidity59.8 %83 % (1:00 am)33 % (3:00 pm)
Barometer29.81 in29.89 in (9:00 am)29.74 in (5:00 pm)
Wind Speed5.8 mph13.8 mph (8:00 am)
Weather ElementAverage
Visibility8.5 mi
Wind DirectionESE (103.8 °)

Weather ElementTotal
Precipitation---
Cooling Degree Days18.3 (Base 65)
Growing Degree Days33.3 (Base 50)
Averaged from 27 records on January 31, 2013
WEATHER CONDITIONS BREAKOUT
WIND DIRECTION BREAKOUT
WEATHER BY HOUR - JANUARY 31, 2013
[ °C ]   °F
Local TimeTemperatureDewpointHumidityBarometerVisibilityWind DirectionWind SpeedGust SpeedPrecipitationEventsConditions
1:00 AM71.6 °F66.2 °F83 %29.83 inCalmClear
2:00 AM71.6 °F66.2 °F83 %29.83 inCalmClear
3:00 AM72.0 °F65.0 °F74 %29.80 in12.0 miCalm
3:00 AM71.6 °F66.2 °F83 %29.83 inCalmClear
4:00 AM71.6 °F66.2 °F83 %29.83 inCalmClear
5:00 AM73.4 °F62.6 °F69 %29.83 inEast (80°)6.9 mphClear
6:00 AM71.6 °F62.6 °F73 %29.83 inEast (80°)9.2 mphClear
7:00 AM73.4 °F64.4 °F73 %29.86 inEast (80°)12.7 mphClear
8:00 AM77.0 °F64.4 °F65 %29.86 inEast (80°)13.8 mphClear
9:00 AM81.0 °F66.0 °F52 %29.86 in12.0 miEast (80°)12.7 mph
9:00 AM80.6 °F66.2 °F61 %29.89 inEast (80°)12.7 mphClear
10:00 AM84.2 °F68.0 °F58 %29.89 inEast (100°)10.4 mphClear
11:00 AM87.8 °F68.0 °F52 %29.86 inEast (90°)8.1 mphClear
12:00 PM91.4 °F68.0 °F46 %29.86 in6.2 miEast (100°)9.2 mphPartly Cloudy
1:00 PM91.4 °F68.0 °F46 %29.86 in6.2 miEast (90°)6.9 mphScattered Clouds
2:00 PM91.4 °F69.8 °F49 %29.83 in6.2 miNNE (20°)4.6 mphScattered Clouds
3:00 PM94.0 °F68.0 °F33 %29.77 in12.0 miWSW (240°)2.3 mphPartly Cloudy
3:00 PM93.2 °F68.0 °F44 %29.80 in6.2 miWSW (240°)2.3 mphScattered Clouds
4:00 PM95.0 °F66.2 °F39 %29.77 in6.2 miWNW (290°)3.5 mphPartly Cloudy
5:00 PM95.0 °F66.2 °F39 %29.74 in6.2 miSSW (200°)4.6 mphPartly Cloudy
6:00 PM95.0 °F62.6 °F34 %29.74 inEast (80°)4.6 mphClear
7:00 PM89.6 °F68.0 °F49 %29.74 inSSE (160°)3.5 mphClear
8:00 PM82.4 °F69.8 °F66 %29.74 inSSE (150°)3.5 mphClear
9:00 PM80.0 °F69.0 °F63 %29.74 in12.0 miESE (120°)6.9 mph
9:00 PM78.8 °F69.8 °F74 %29.77 inESE (120°)6.9 mphClear
10:00 PM82.4 °F68.0 °F62 %29.77 inESE (110°)6.9 mphClear
11:00 PM80.6 °F66.2 °F61 %29.80 inESE (110°)4.6 mphClear
Hourly data recorded from SBFI, located miles away from Puerto Presidente Stroessner, Paraguay







STORIES FROM OUR PARTNERS